Home   Weather   Pakistan   Karachi   Past weeks
Flag for Pakistan

Past Weather in Karachi, Sindh, Pakistan — Yesterday and Last 2 Weeks

Currently: 90 °F. Broken clouds. (Weather station: Karachi Airport, Pakistan). See more current weather

Past Weather in Karachi — Graph

°F

Karachi Temperature Yesterday

Maximum temperature yesterday: 95 °F (at 1:00 pm)
Minimum temperature yesterday: 86 °F (at 12:00 am)
Average temperature yesterday: 89 °F

High & Low Weather Summary for the Past Weeks

 TemperatureHumidityPressure
High104 °F (Jul 16, 2:00 pm)100% (Jul 13, 6:30 pm)29.62 "Hg (Jul 13, 6:30 pm)
Low73 °F (Jul 13, 6:30 pm)37% (Jul 19, 1:00 pm)29.33 "Hg (Jul 19, 5:00 pm)
Average91 °F69%29.47 "Hg
* Reported Jul 9 5:30 pm — Jul 24 5:00 pm, Karachi. Weather by CustomWeather, © 2024

Note: Actual official high and low records may vary slightly from our data, if they occured in-between our weather recording intervals... More about our weather records

Karachi Weather History for the Previous 24 Hours

Scroll right to see more
 ConditionsComfort  
Time TempWeatherWind HumidityBarometerVisibility
5:00 pm
Wed, Jul 24
90 °FBroken clouds.17 mph71%29.33 "Hg4 mi
4:30 pm90 °FBroken clouds.21 mph71%29.33 "Hg4 mi
4:00 pm91 °FScattered clouds.22 mph67%29.33 "Hg3 mi
3:30 pm91 °FScattered clouds.22 mph67%29.33 "Hg3 mi
3:00 pm91 °FScattered clouds.21 mph67%29.33 "Hg3 mi
2:30 pm90 °FBroken clouds.21 mph71%29.36 "Hg2 mi
2:00 pm90 °FBroken clouds.14 mph75%29.36 "Hg2 mi
1:30 pm88 °FBroken clouds.13 mph79%29.36 "Hg2 mi
1:00 pm88 °FBroken clouds.14 mph79%29.39 "Hg2 mi
12:30 pm88 °FBroken clouds.13 mph79%29.39 "Hg2 mi
12:00 pm86 °FBroken clouds.15 mph84%29.42 "Hg2 mi
11:30 am86 °FBroken clouds.12 mph84%29.42 "Hg2 mi
11:00 am86 °FDrizzle. Broken clouds.15 mph84%29.42 "Hg2 mi
10:30 am86 °FDrizzle. Broken clouds.16 mph84%29.42 "Hg2 mi
10:00 am86 °FBroken clouds.14 mph84%29.42 "Hg2 mi
9:30 am86 °FBroken clouds.9 mph84%29.42 "Hg2 mi
9:00 am86 °FBroken clouds.16 mph89%29.42 "Hg2 mi
8:30 am86 °FDrizzle. Broken clouds.8 mph84%29.42 "Hg1 mi
8:00 am86 °FDrizzle. Broken clouds.9 mph84%29.42 "Hg2 mi
7:30 am86 °FBroken clouds.13 mph84%29.42 "Hg3 mi
7:00 am86 °FBroken clouds.14 mph84%29.39 "Hg3 mi
6:30 am86 °FBroken clouds.10 mph84%29.39 "Hg3 mi
6:00 am86 °FPartly sunny.13 mph84%29.39 "Hg3 mi
5:30 am86 °FPassing clouds.12 mph84%29.39 "Hg3 mi
5:00 am86 °FPassing clouds.10 mph84%29.39 "Hg3 mi
4:30 am86 °FPassing clouds.8 mph84%29.42 "Hg3 mi
4:00 am86 °FPassing clouds.12 mph84%29.42 "Hg3 mi
3:30 am86 °FPassing clouds.21 mph84%29.42 "Hg3 mi
3:00 am86 °FPassing clouds.12 mph84%29.42 "Hg3 mi
2:30 am86 °FPassing clouds.15 mph84%29.42 "Hg3 mi
2:00 am86 °FPassing clouds.13 mph84%29.45 "Hg3 mi
1:30 am88 °FPassing clouds.13 mph79%29.45 "Hg3 mi
1:00 am88 °FPartly cloudy.14 mph79%29.45 "Hg3 mi
12:00 am88 °FPartly cloudy.12 mph79%29.47 "Hg3 mi
11:30 pm
Tue, Jul 23
88 °FPartly cloudy.14 mph79%29.47 "Hg3 mi
11:00 pm88 °FPartly cloudy.20 mph79%29.47 "Hg3 mi
10:30 pm88 °FPartly cloudy.15 mph79%29.47 "Hg3 mi
10:00 pm86 °FPartly cloudy.18 mph84%29.45 "Hg3 mi
9:30 pm88 °FPartly cloudy.12 mph79%29.45 "Hg3 mi
9:00 pm88 °FPartly cloudy.14 mph84%29.45 "Hg3 mi
8:30 pm88 °FPartly cloudy.15 mph79%29.45 "Hg3 mi
8:00 pm88 °FPartly cloudy.15 mph79%29.45 "Hg3 mi
7:30 pm88 °FPartly cloudy.17 mph79%29.42 "Hg3 mi
7:00 pm88 °FBroken clouds.16 mph75%29.42 "Hg3 mi
6:30 pm90 °FBroken clouds.17 mph75%29.42 "Hg3 mi
Weather by CustomWeather, © 2024

See weather overview